Погода в Морелии

Мексика     19°42′10″N   101°11′25″W
темп.,
°C
ветер,
м/с
пор.,
м/с
влажн.,
%
обл.,
%
осадки,
мм/ч
давл.,
гПа
погр.,
м
10 апреля, сб
сб1001:00+14юз22480 0.0 101519
04:00+13ююз22500 0.0 101422
07:00+11юз11520 0.0 101511
10:00+20ю12305 0.0 1015470
13:00+29юз01150 0.0 10112435
16:00+30юв33136 0.0 10063759
19:00+26ю44181 0.0 10061771
22:00+18юз22332 0.0 101140
11 апреля, вс
вс1101:00+16ююз22363 0.0 101337
04:00+14зюз11395 0.0 101310
07:00+13юз21445 0.0 101412
10:00+22ююв112832 0.0 1012497
13:00+28ююв3417100 0.0 10092923
16:00+28ююв661548 0.0 10053766
19:00+25ю542010 0.0 10062585
22:00+17юз22375 0.0 101136
12 апреля, пн
пн1201:00+16юз2240100 0.0 101327
04:00+15юз224373 0.0 101211
07:00+13з11495 0.0 101310
10:00+22ююв11285 0.0 1012544
13:00+28юв34173 0.0 10093225
16:00+29ююв661439 0.0 10063887
19:00+26ю54193 0.0 10062191
22:00+18зюз23385 0.0 101260
13 апреля, вт
вт1301:00+16ююз22425 0.0 101425
04:00+14юз11445 0.0 101310
07:00+13зюз11485 0.0 101510
10:00+23з00275 0.0 1014542
13:00+31вюв13169 0.0 10112724
16:00+29ююв6616100 0.0 10073570
19:00+26ю451944 0.0 10082234
22:00+18ююз223649 0.0 101325
14 апреля, ср
ср1401:00+18ююз2238100 0.0 101543
04:00+16з114390 0.0 101513
07:00+14юз1147100 0.0 101712
10:00+23ю01270 0.0 1016567
13:00+31всв11170 0.0 10122661
16:00+31юв331595 0.0 10084215
19:00+19сз4749100 0.7 1014398
22:00+19всв114988 0.4 101447